User: anonymous   Login
Location: Unspecified
(0.0000°N, 0.0000°E)
Time: 18:22:35
(UTC+00:00)
Language:

NATO 4A - Orbit

View from above orbital plane
View from above orbital plane
View from above satellite
View from above satellite

Ground track
Ground track

The orbit data is extracted from the following two-line orbital elements,

1 21047U 91001A   21025.74966181 -.00000215  00000-0  00000-0 0  9996
2 21047  13.2742   6.6902 0001269  64.6743 112.1137  0.98285094108770
Epoch (UTC): 25 January 2021 17:59:30
Eccentricity: 0.0001269
inclination: 13.2742°
perigee height: 36347 km
apogee height: 36358 km
right ascension of ascending node: 6.6902°
argument of perigee: 64.6743°
revolutions per day: 0.98285094
mean anomaly at epoch: 112.1137°
orbit number at epoch: 10877

The dashed part of the orbit path shows where the satellite is in the earth's shadow,  

DLR